Previsão horária em Barreirinhas

Hoje, 20 Outubro, Terça-feira

Tempo Temperatura Precipitação Vento Pressão Humidade
00:00 +28°C° 0 mm 4 m/s 757 mmHg 78%
01:00 +28°C° 0 mm 4 m/s 756 mmHg 79%
02:00 +28°C° 0 mm 4 m/s 756 mmHg 80%
03:00 +28°C° 0 mm 4 m/s 756 mmHg 82%
04:00 +28°C° 0 mm 5 m/s 756 mmHg 81%
05:00 +28°C° 0 mm 5 m/s 756 mmHg 80%
06:00 +28°C° 0 mm 6 m/s 757 mmHg 79%
07:00 +29°C° 0 mm 6 m/s 758 mmHg 74%
08:00 +29°C° 0 mm 6 m/s 758 mmHg 69%
09:00 +30°C° 0 mm 6 m/s 759 mmHg 64%
10:00 +33°C° 0 mm 6 m/s 758 mmHg 58%
11:00 +34°C° 0 mm 6 m/s 758 mmHg 52%
12:00 +36°C° 0 mm 6 m/s 758 mmHg 46%
13:00 +35°C° 0 mm 6 m/s 757 mmHg 49%
14:00 +34°C° 0 mm 7 m/s 756 mmHg 53%
15:00 +34°C° 0 mm 7 m/s 755 mmHg 56%
16:00 +32°C° 0 mm 7 m/s 756 mmHg 61%
17:00 +30°C° 0 mm 6 m/s 756 mmHg 67%
18:00 +29°C° 0 mm 6 m/s 756 mmHg 72%
19:00 +29°C° 0 mm 6 m/s 756 mmHg 73%
20:00 +29°C° 0 mm 6 m/s 757 mmHg 74%
21:00 +29°C° 0 mm 6 m/s 757 mmHg 74%
22:00 +28°C° 0 mm 6 m/s 757 mmHg 75%
23:00 +28°C° 0 mm 5 m/s 757 mmHg 75%

Amanhã, 21 Outubro, Quarta-feira

Tempo Temperatura Precipitação Vento Pressão Humidade
00:00 +28°C° 0 mm 5 m/s 757 mmHg 75%
01:00 +28°C° 0 mm 5 m/s 757 mmHg 77%
02:00 +27°C° 0 mm 4 m/s 757 mmHg 79%
03:00 +27°C° 0 mm 4 m/s 756 mmHg 80%
04:00 +27°C° 0 mm 4 m/s 757 mmHg 79%
05:00 +27°C° 0 mm 5 m/s 757 mmHg 78%
06:00 +28°C° 0 mm 5 m/s 758 mmHg 77%
07:00 +29°C° 0 mm 5 m/s 758 mmHg 70%
08:00 +30°C° 0 mm 5 m/s 759 mmHg 64%
09:00 +33°C° 0 mm 6 m/s 759 mmHg 57%
10:00 +34°C° 0 mm 6 m/s 759 mmHg 53%
11:00 +35°C° 0 mm 6 m/s 758 mmHg 49%
12:00 +36°C° 0 mm 6 m/s 758 mmHg 45%
13:00 +35°C° 0 mm 6 m/s 757 mmHg 48%
14:00 +35°C° 0 mm 6 m/s 756 mmHg 51%
15:00 +34°C° 0 mm 6 m/s 755 mmHg 54%
16:00 +33°C° 0 mm 6 m/s 756 mmHg 60%
17:00 +30°C° 0 mm 6 m/s 756 mmHg 67%
18:00 +29°C° 0 mm 5 m/s 756 mmHg 74%
19:00 +29°C° 0 mm 5 m/s 757 mmHg 75%
20:00 +28°C° 0 mm 4 m/s 757 mmHg 76%
21:00 +28°C° 0 mm 4 m/s 758 mmHg 78%
22:00 +28°C° 0 mm 4 m/s 758 mmHg 78%
23:00 +28°C° 0 mm 4 m/s 758 mmHg 79%

Depois de amanhã, 22 Outubro, Quinta-feira

Tempo Temperatura Precipitação Vento Pressão Humidade
00:00 +28°C° 0 mm 4 m/s 757 mmHg 79%
01:00 +28°C° 0 mm 4 m/s 757 mmHg 80%
02:00 +28°C° 0 mm 4 m/s 756 mmHg 81%
03:00 +27°C° 0 mm 4 m/s 756 mmHg 82%
04:00 +28°C° 0.1 mm 4 m/s 756 mmHg 81%
05:00 +28°C° 0.1 mm 4 m/s 757 mmHg 80%
06:00 +28°C° 0.1 mm 5 m/s 757 mmHg 80%
07:00 +29°C° 0.1 mm 5 m/s 758 mmHg 74%
08:00 +30°C° 0.1 mm 5 m/s 758 mmHg 69%
09:00 +32°C° 0.1 mm 5 m/s 758 mmHg 63%
10:00 +33°C° 0 mm 5 m/s 758 mmHg 58%
11:00 +35°C° 0 mm 5 m/s 758 mmHg 53%
12:00 +36°C° 0 mm 6 m/s 757 mmHg 48%
13:00 +35°C° 0.1 mm 6 m/s 756 mmHg 51%
14:00 +35°C° 0.1 mm 6 m/s 756 mmHg 55%
15:00 +34°C° 0.1 mm 6 m/s 755 mmHg 58%
16:00 +33°C° 0 mm 5 m/s 756 mmHg 64%
17:00 +30°C° 0 mm 5 m/s 756 mmHg 71%
18:00 +29°C° 0 mm 5 m/s 756 mmHg 77%
19:00 +29°C° 0 mm 5 m/s 757 mmHg 78%
20:00 +29°C° 0 mm 4 m/s 757 mmHg 79%
21:00 +29°C° 0 mm 4 m/s 758 mmHg 80%
22:00 +29°C° 0 mm 4 m/s 757 mmHg 80%
23:00 +29°C° 0 mm 5 m/s 757 mmHg 80%

23 Outubro, Sexta-feira

Tempo Temperatura Precipitação Vento Pressão Humidade
00:00 +29°C° 0 mm 5 m/s 757 mmHg 80%
01:00 +29°C° 0 mm 4 m/s 757 mmHg 81%
02:00 +28°C° 0 mm 4 m/s 756 mmHg 82%
03:00 +28°C° 0 mm 4 m/s 756 mmHg 83%
04:00 +28°C° 0.1 mm 4 m/s 756 mmHg 82%
05:00 +28°C° 0.1 mm 4 m/s 757 mmHg 82%
06:00 +28°C° 0.1 mm 4 m/s 757 mmHg 81%
07:00 +29°C° 0.1 mm 5 m/s 758 mmHg 75%
08:00 +30°C° 0.1 mm 5 m/s 758 mmHg 69%
09:00 +33°C° 0.1 mm 5 m/s 759 mmHg 62%
10:00 +34°C° 0 mm 6 m/s 758 mmHg 59%
11:00 +34°C° 0 mm 6 m/s 758 mmHg 55%
12:00 +35°C° 0 mm 7 m/s 757 mmHg 51%
13:00 +35°C° 0 mm 7 m/s 756 mmHg 53%
14:00 +35°C° 0 mm 7 m/s 756 mmHg 54%
15:00 +34°C° 0 mm 7 m/s 755 mmHg 55%
16:00 +33°C° 0 mm 6 m/s 756 mmHg 62%
17:00 +30°C° 0 mm 5 m/s 756 mmHg 68%
18:00 +29°C° 0 mm 5 m/s 756 mmHg 74%
19:00 +29°C° 0 mm 4 m/s 757 mmHg 77%
20:00 +28°C° 0 mm 4 m/s 757 mmHg 80%
21:00 +28°C° 0 mm 4 m/s 758 mmHg 82%
22:00 +28°C° 0 mm 4 m/s 757 mmHg 82%
23:00 +28°C° 0 mm 4 m/s 757 mmHg 83%

24 Outubro, Sábado

Tempo Temperatura Precipitação Vento Pressão Humidade
00:00 +28°C° 0 mm 4 m/s 757 mmHg 83%
01:00 +28°C° 0 mm 4 m/s 757 mmHg 83%
02:00 +28°C° 0 mm 4 m/s 756 mmHg 83%
03:00 +28°C° 0 mm 4 m/s 756 mmHg 83%
04:00 +28°C° 0.1 mm 4 m/s 756 mmHg 83%
05:00 +28°C° 0.1 mm 4 m/s 757 mmHg 83%
06:00 +27°C° 0.1 mm 4 m/s 757 mmHg 83%
07:00 +29°C° 0 mm 4 m/s 758 mmHg 75%
08:00 +32°C° 0 mm 5 m/s 758 mmHg 67%
09:00 +33°C° 0 mm 6 m/s 759 mmHg 60%
10:00 +34°C° 0 mm 6 m/s 758 mmHg 56%
11:00 +35°C° 0 mm 6 m/s 757 mmHg 52%
12:00 +36°C° 0 mm 6 m/s 757 mmHg 48%
13:00 +35°C° 0 mm 6 m/s 756 mmHg 50%
14:00 +35°C° 0 mm 6 m/s 756 mmHg 51%
15:00 +35°C° 0 mm 6 m/s 755 mmHg 52%
16:00 +33°C° 0 mm 5 m/s 755 mmHg 60%
17:00 +30°C° 0 mm 4 m/s 755 mmHg 68%
18:00 +29°C° 0 mm 4 m/s 755 mmHg 75%
19:00 +29°C° 0 mm 4 m/s 756 mmHg 77%
20:00 +28°C° 0 mm 4 m/s 756 mmHg 79%
21:00 +28°C° 0 mm 4 m/s 756 mmHg 80%
22:00 +28°C° 0 mm 4 m/s 756 mmHg 81%
23:00 +28°C° 0 mm 4 m/s 756 mmHg 82%

25 Outubro, Domingo

Tempo Temperatura Precipitação Vento Pressão Humidade
00:00 +28°C° 0 mm 5 m/s 756 mmHg 83%
01:00 +28°C° 0 mm 4 m/s 755 mmHg 83%
02:00 +28°C° 0 mm 4 m/s 755 mmHg 84%
03:00 +27°C° 0 mm 4 m/s 754 mmHg 84%
04:00 +27°C° 0 mm 4 m/s 755 mmHg 83%
05:00 +28°C° 0 mm 4 m/s 755 mmHg 83%
06:00 +28°C° 0 mm 4 m/s 756 mmHg 82%
07:00 +29°C° 0 mm 4 m/s 756 mmHg 75%
08:00 +30°C° 0 mm 5 m/s 757 mmHg 68%
09:00 +33°C° 0 mm 5 m/s 757 mmHg 61%
10:00 +34°C° 0 mm 6 m/s 757 mmHg 57%
11:00 +35°C° 0 mm 6 m/s 757 mmHg 52%
12:00 +36°C° 0 mm 6 m/s 756 mmHg 48%
13:00 +36°C° 0 mm 6 m/s 755 mmHg 50%
14:00 +35°C° 0 mm 6 m/s 755 mmHg 53%
15:00 +34°C° 0 mm 6 m/s 754 mmHg 55%
16:00 +33°C° 0 mm 6 m/s 754 mmHg 62%
17:00 +32°C° 0 mm 5 m/s 754 mmHg 68%
18:00 +29°C° 0 mm 5 m/s 754 mmHg 74%
19:00 +29°C° 0 mm 5 m/s 755 mmHg 75%
20:00 +29°C° 0 mm 5 m/s 755 mmHg 76%
21:00 +29°C° 0 mm 5 m/s 756 mmHg 77%
22:00 +28°C° 0 mm 5 m/s 756 mmHg 78%
23:00 +28°C° 0 mm 4 m/s 756 mmHg 80%

26 Outubro, Segunda-feira

Tempo Temperatura Precipitação Vento Pressão Humidade
00:00 +28°C° 0 mm 4 m/s 756 mmHg 81%
01:00 +28°C° 0 mm 4 m/s 755 mmHg 82%
02:00 +28°C° 0 mm 4 m/s 755 mmHg 82%
03:00 +28°C° 0 mm 4 m/s 755 mmHg 83%
04:00 +28°C° 0 mm 4 m/s 755 mmHg 83%
05:00 +28°C° 0 mm 4 m/s 755 mmHg 84%
06:00 +27°C° 0 mm 4 m/s 755 mmHg 84%
07:00 +29°C° 0 mm 4 m/s 756 mmHg 76%
08:00 +32°C° 0 mm 5 m/s 756 mmHg 68%
09:00 +33°C° 0 mm 6 m/s 757 mmHg 60%
10:00 +34°C° 0 mm 6 m/s 756 mmHg 56%
11:00 +35°C° 0 mm 6 m/s 756 mmHg 52%
12:00 +36°C° 0 mm 6 m/s 755 mmHg 48%
13:00 +35°C° 0 mm 6 m/s 754 mmHg 51%
14:00 +35°C° 0 mm 6 m/s 754 mmHg 54%
15:00 +34°C° 0 mm 6 m/s 753 mmHg 57%
16:00 +33°C° 0 mm 6 m/s 754 mmHg 63%
17:00 +30°C° 0 mm 5 m/s 754 mmHg 69%
18:00 +29°C° 0 mm 5 m/s 754 mmHg 76%
19:00 +29°C° 0 mm 5 m/s 755 mmHg 77%
20:00 +29°C° 0 mm 5 m/s 755 mmHg 79%
21:00 +29°C° 0 mm 5 m/s 756 mmHg 80%
22:00 +29°C° 0 mm 5 m/s 756 mmHg 80%
23:00 +28°C° 0 mm 5 m/s 756 mmHg 80%
Mostrar mais